Regional Weather Roundup
Issued by NWS Upton, NY

Current Version | Previous Version | Graphics & Text | Print | Product List | Glossary Off
Versions: 1 2 3 4 5 6 7 8 9 10 11 12 13 14 15 16 17 18 19 20 21 22 23 24 25 26 27 28 29 30 31 32 33 34 35 36 37 38 39 40 41 42 43 44 45 46 47 48 49 50

000
ASUS41 KOKX 020105
RWROKX

REGIONAL WEATHER ROUNDUP
NATIONAL WEATHER SERVICE NEW YORK NY
900 PM EDT MON SEP 01 2014

NOTE: "FAIR" INDICATES FEW OR NO CLOUDS BELOW 12,000 FEET WITH NO
SIGNIFICANT WEATHER AND/OR OBSTRUCTIONS TO VISIBILITY.

NYZ071-072-176-178-NJZ106-104-020200-
NEW YORK CITY METRO AREA


CITY           SKY/WX    TMP DP  RH WIND       PRES   REMARKS
CENTRAL PARK   CLEAR     82  70  66 CALM      29.96S
LAGUARDIA APRT PTCLDY    83  71  67 S7        29.93S
KENNEDY INTL   PTCLDY    78  73  84 S13       29.95R
NEWARK/LIBERTY MOCLDY    84  72  65 S8        29.93R
BRNX BOT. GARD   N/A     79  72  78 SE3       29.96R
TETERBORO      PTCLDY    82  71  69 SW6       29.92R
$$

NYZ177-179-078>081-020200-
LONG ISLAND NEW YORK

CITY           SKY/WX    TMP DP  RH WIND       PRES   REMARKS
FARMINGDALE    CLEAR     76  72  87 S9        29.95S
ISLIP          PTCLDY    77  72  84 SW9       29.95R
SHIRLEY        CLEAR     76  73  91 S7        29.97S
WESTHAMPTON    MOCLDY    75  72  90 SW6       29.98R
MONTAUK POINT    N/A     74  71  91 S8        29.97R
$$

NYZ052-065-067-020200-
HUDSON VALLEY

CITY           SKY/WX    TMP DP  RH WIND       PRES   REMARKS
WHITE PLAINS   PTCLDY    75  73  93 CALM      29.95S
NEWBURGH       CLEAR     79  72  78 CALM      29.95
MONTGOMERY     CLEAR     74  71  91 CALM      29.93R
POUGHKEEPSIE   CLEAR     78  72  81 CALM      29.92R
ALBANY         PTCLDY    80  68  66 S5        29.91R
$$

NJZ001-105-106-008-010-013-015-019>022-104-020200-
NEW JERSEY

CITY           SKY/WX    TMP DP  RH WIND       PRES   REMARKS
NEWARK/LIBERTY MOCLDY    84  72  65 S8        29.93R
TETERBORO      PTCLDY    82  71  69 SW6       29.92R
CALDWELL       CLOUDY    81  70  69 CALM      29.94R
MORRISTOWN     MOCLDY    77  72  83 CALM      29.94R
SOMERVILLE     MOCLDY    77  73  87 CALM      29.92S
LINDEN         MOCLDY    87  73  63 SW5       29.95S HX  95
SUSSEX         PTCLDY    76  72  87 CALM      29.95R
ANDOVER          N/A     74  71  91 CALM      29.96R
TRENTON        CLEAR     81  71  71 SW3       29.94S
MILLVILLE      CLEAR     77  74  90 CALM      29.96S
ATLANTIC CITY  CLEAR     77  75  93 S3        29.96S
WRIGHTSTOWN    CLEAR     77  74  89 S7        29.94R
TOMS RIVER     PTCLDY    77  72  83 CALM      29.96S
BELMAR         PTCLDY    77  72  83 S6        29.96S
$$

PAZ047>061-062-071-020200-
EASTERN PENNSYLVANIA

CITY           SKY/WX    TMP DP  RH WIND       PRES   REMARKS
PHILADELPHIA   PTCLDY    82  73  74 S6        29.95S
ALLENTOWN      CLEAR     81  70  69 S3        29.94F
SCRANTON       MOCLDY    77  68  73 CALM      29.96R
$$

CTZ002-004>006-009-010-012-RIZ004-006-007-MAZ004-011-015-020200-
SOUTHERN NEW ENGLAND
 IN CT

CITY           SKY/WX    TMP DP  RH WIND       PRES   REMARKS
BRADLEY INTL   PTCLDY    79  70  74 S6        29.93R
HARTFORD       CLEAR     77  71  82 S6        29.93R
DANBURY        CLEAR     77  71  82 S8        29.96S
WTRBRY/OXFORD  CLEAR     75  70  83 S5        29.99R
BRIDGEPORT     PTCLDY    79  73  82 SW8       29.95R
MERIDEN        CLEAR     76  71  85 S6        29.94R
NEW HAVEN      PTCLDY    80  72  76 SW6       29.95R
CHESTER        FAIR      75  72  88 SW6       29.97R
GROTON         CLEAR     73  70  90 SW5       29.95R
WILLIMANTIC    CLEAR     77  72  84 S5        29.96R

 IN RI

CITY           SKY/WX    TMP DP  RH WIND       PRES   REMARKS
PROVIDENCE     PTCLDY    77  71  82 S3        29.95R
BLOCK ISLAND   CLEAR     72  68  88 SW10      29.97S
WESTERLY       CLEAR     73  70  90 S3        29.97R

 IN MA

CITY           SKY/WX    TMP DP  RH WIND       PRES   REMARKS
BOSTON         PTCLDY    77  69  76 CALM      29.93R
WORCESTER      CLEAR     74  69  85 SW6       29.99R
WESTFIELD      CLEAR     74  71  91 CALM      29.94R
PROVINCETOWN   CLEAR     73  70  88 S10       29.95R
NANTUCKET      FOG       69  68  96 SW6       29.97R VSB 3/4
$$

ANZ330-335-338-340-345-350-353-355-020200-
COASTAL MARINE OBSERVATIONS


STATION/POSITION TIME  SKY/WX   TEMP    WIND        PRES    VSBY  WAVE
                                AIR SEA DIR/SP/G                  HT/PER
                 (UTC)          (F)     (DEG/KT/KT) (MB)    (MI)  (FT/S)
NY HARB ENTRANCE NOT AVBL
4S FIRE IS       NOT AVBL
23SW MTP         0100                                 N/A           3/ 6
HUDSON CANYON    0100            75 74  210/ 14/ 14 1015.0          4/ 6
EXECUTION ROCKS  0100            79 76  190/ 10/ 12   N/A
WESTERN LI SOUND 0100            79     180/ 10/ 12   N/A           0
CENTRAL LI SOUND 0100            76 75  210/ 12/ 14   N/A           1
EASTERN LI SOUND 0000            73 69  210/  8/ 10   N/A
ROBBINS REEF     0100            81     190/ 13/ 16   N/A
$$


>>>>>>>>>>>>>>>>>>>>>>>>>>>> KEY <<<<<<<<<<<<<<<<<<<<<<<<<<<
>                                                          <
>     SKY/WX - SKY CONDITION/PRESENT WEATHER               <
>     TMP    - TEMPERATURE IN FAHRENHEIT                   <
>     DP     - DEWPOINT IN FAHRENHEIT                      <
>     RH     - RELATIVE HUMIDITY IN PERCENT                <
>     WIND   - DIRECTION AND SPEED IN MPH                  <
>     PRES   - MEAN SEA LEVEL PRESSURE IN INCHES OF HG     <
>     WCI    - WIND CHILL INDEX                            <
>     VSB    - VISIBILITY IN MILES                         <
>     HX     - HEAT INDEX                                  <
>     TC     - TEMPERATURE IN CELSIUS                      <
>     VRB    - VARIABLE WIND DIRECTION                     <
>                                                          <
>>>>>>>>>>>>>>>>>>>>>>>>>>>> KEY <<<<<<<<<<<<<<<<<<<<<<<<<<<




USA.gov is the U.S. government's official web portal to all federal, state and local government web resources and services.